New York Downtown Manhattan/w, NY

12:20 PM EDT on September 17, 2019 (GMT -0400)
New York Downtown Manhattan/w

Weather History for KJRB - May, 2019

Change the Weather History Date:

Sunday, May 5, 2019

  Actual Average (KEWR) Record (KEWR)
Temperature  
Mean Temperature 54 °F -  
Max Temperature 57 °F 68 °F 94 °F (1949)
Min Temperature 51 °F 49 °F 38 °F (1966)
Degree Days  
Heating Degree Days 11    
Growing Degree Days 4 (Base 50)    
Moisture  
Dew Point 53 °F    
Average Humidity 95    
Maximum Humidity 100    
Minimum Humidity 89    
Precipitation  
Precipitation 0.94 in - - ()
Sea Level Pressure  
Sea Level Pressure 29.83 in    
Wind  
Wind Speed 7 mph (NE)    
Max Wind Speed 18 mph    
Max Gust Speed 25 mph    
Visibility 6 miles    
Events Rain    
Averages and records for this station are not official NWS values.
T = Trace of Precipitation, MM = Missing Value Source: NWS Daily Summary

Daily Weather History Graph

Daily Weather History Graph

Search for Another Location

Airport or City:

Astronomy

May. 05, 2019 Rise Set
Actual Time 5:50 AM EDT 7:56 PM EDT
Civil Twilight 5:20 AM EDT 8:26 PM EDT
Nautical Twilight 4:43 AM EDT 9:03 PM EDT
Astronomical Twilight 4:03 AM EDT 9:43 PM EDT
Moon 6:33 AM EDT (5/5) 8:46 PM EDT (5/5)
Length of Visible Light 15h 06m
Length of Day
14h 06m
New Moon, 1% of the Moon is Illuminated
May 5
New Moon
May 11
First Quarter
May 18
Full
May 26
Last Quarter
Jun 3
New

Hourly Weather History & Observations

Time (EDT) Temp. Dew Point Humidity Pressure Visibility Wind Dir Wind Speed Gust Speed Precip Events Conditions
12:14 AM 55.4 °F 53.6 °F 94% 29.85 in 5.0 mi Calm Calm - 0.00 in Rain Light Rain
12:49 AM 55.4 °F 53.6 °F 94% 29.84 in 2.5 mi NNE 4.6 mph - 0.00 in   Overcast
12:56 AM 55.9 °F 54.0 °F 93% 29.84 in 2.0 mi ENE 4.6 mph - 0.00 in   Overcast
1:06 AM 55.4 °F 53.6 °F 94% 29.85 in 1.8 mi East 3.5 mph - N/A   Overcast
1:46 AM 55.4 °F 55.4 °F 100% 29.85 in 2.0 mi NNE 5.8 mph - 0.02 in Rain Light Rain
1:56 AM 55.9 °F 55.0 °F 97% 29.85 in 3.0 mi NE 5.8 mph - 0.03 in Rain Light Rain
2:56 AM 55.9 °F 55.0 °F 97% 29.83 in 5.0 mi West 4.6 mph - 0.05 in Rain Light Rain
3:25 AM 55.4 °F 53.6 °F 94% 29.83 in 3.0 mi Calm Calm - 0.01 in Rain Light Rain
3:56 AM 55.9 °F 55.0 °F 97% 29.82 in 5.0 mi Variable 3.5 mph - 0.07 in Rain Light Rain
4:56 AM 57.0 °F 55.9 °F 96% 29.80 in 7.0 mi NNE 9.2 mph - 0.05 in Rain Light Rain
5:08 AM 57.2 °F 55.4 °F 94% 29.80 in 6.0 mi NE 8.1 mph - 0.02 in Rain Light Rain
5:18 AM 55.4 °F 55.4 °F 100% 29.81 in 5.0 mi East 6.9 mph - 0.03 in Rain Light Rain
5:56 AM 55.9 °F 55.0 °F 97% 29.81 in 6.0 mi NNE 12.7 mph - 0.15 in Rain Light Rain
6:56 AM 55.0 °F 54.0 °F 96% 29.82 in 5.0 mi NE 13.8 mph - 0.11 in Rain Light Rain
7:56 AM 55.9 °F 54.0 °F 93% 29.82 in 10.0 mi NNE 11.5 mph - 0.06 in Rain Light Rain
8:56 AM 55.0 °F 54.0 °F 96% 29.83 in 7.0 mi NE 9.2 mph - 0.03 in Rain Light Rain
9:56 AM 55.0 °F 54.0 °F 96% 29.85 in 10.0 mi NE 10.4 mph 16.1 mph 0.01 in Rain Light Rain
10:56 AM 55.0 °F 54.0 °F 96% 29.84 in 10.0 mi NE 9.2 mph - 0.01 in Rain Light Rain
11:56 AM 55.0 °F 54.0 °F 96% 29.84 in 7.0 mi NE 8.1 mph - 0.01 in Rain Light Rain
12:56 PM 54.0 °F 53.1 °F 97% 29.82 in 7.0 mi NNE 11.5 mph 18.4 mph 0.04 in Rain Light Rain
1:56 PM 54.0 °F 52.0 °F 93% 29.82 in 8.0 mi NNE 12.7 mph 18.4 mph 0.02 in Rain Light Rain
2:56 PM 53.1 °F 51.1 °F 93% 29.82 in 10.0 mi NNE 15.0 mph 21.9 mph 0.01 in Rain Light Rain
3:56 PM 53.1 °F 50.0 °F 89% 29.80 in 10.0 mi NNE 13.8 mph 20.7 mph 0.00 in   Overcast
4:56 PM 53.1 °F 50.0 °F 89% 29.80 in 10.0 mi NNE 18.4 mph 25.3 mph N/A   Overcast
5:56 PM 52.0 °F 50.0 °F 93% 29.80 in 10.0 mi NE 16.1 mph 25.3 mph 0.00 in Rain Light Rain
6:56 PM 52.0 °F 50.0 °F 93% 29.82 in 2.5 mi NE 16.1 mph 23.0 mph 0.02 in Rain Light Rain
7:26 PM 51.8 °F 50.0 °F 94% 29.82 in 3.0 mi NNE 15.0 mph 21.9 mph 0.04 in Rain Light Rain
7:56 PM 52.0 °F 50.0 °F 93% 29.82 in 4.0 mi NNE 17.3 mph 23.0 mph 0.07 in Rain Light Rain
8:56 PM 52.0 °F 51.1 °F 97% 29.86 in 5.0 mi NNE 11.5 mph 17.3 mph 0.07 in Rain Light Rain
9:56 PM 52.0 °F 51.1 °F 97% 29.86 in 9.0 mi NNE 9.2 mph - 0.09 in Rain Light Rain
10:09 PM 51.8 °F 51.8 °F 100% 29.86 in 10.0 mi NE 10.4 mph - 0.01 in Rain Light Rain
10:56 PM 52.0 °F 51.1 °F 97% 29.82 in 10.0 mi NE 15.0 mph - 0.02 in Rain Light Rain
11:56 PM 53.1 °F 51.1 °F 93% 29.82 in 10.0 mi NE 16.1 mph 24.2 mph 0.02 in Rain Light Rain